Stündliche Wetter Homichi

Heute, 21 Juni, Montag

Zeit Temperatur Niederschläge Wind Luftdruck Luftfeuchtigkeit
00:00 +21°C° 0.2 mm 2 m/S 751 mmHg 92%
01:00 +20°C° 0.2 mm 2 m/S 751 mmHg 93%
02:00 +20°C° 0 mm 2 m/S 751 mmHg 94%
03:00 +20°C° 0 mm 2 m/S 751 mmHg 93%
04:00 +20°C° 0 mm 2 m/S 751 mmHg 93%
05:00 +21°C° 0 mm 2 m/S 751 mmHg 92%
06:00 +23°C° 0 mm 2 m/S 751 mmHg 86%
07:00 +25°C° 0 mm 2 m/S 751 mmHg 79%
08:00 +26°C° 0 mm 3 m/S 751 mmHg 72%
09:00 +28°C° 0 mm 3 m/S 751 mmHg 66%
10:00 +29°C° 0 mm 3 m/S 751 mmHg 60%
11:00 +30°C° 0 mm 4 m/S 751 mmHg 53%
12:00 +32°C° 0 mm 4 m/S 751 mmHg 51%
13:00 +32°C° 0 mm 4 m/S 751 mmHg 49%
14:00 +32°C° 0 mm 4 m/S 751 mmHg 48%
15:00 +32°C° 0 mm 4 m/S 750 mmHg 51%
16:00 +30°C° 0 mm 4 m/S 750 mmHg 55%
17:00 +29°C° 0 mm 3 m/S 750 mmHg 59%
18:00 +28°C° 0 mm 3 m/S 750 mmHg 65%
19:00 +26°C° 0 mm 3 m/S 750 mmHg 72%
20:00 +25°C° 0 mm 3 m/S 749 mmHg 78%
21:00 +24°C° 0 mm 3 m/S 749 mmHg 81%
22:00 +22°C° 0 mm 3 m/S 749 mmHg 85%
23:00 +21°C° 0 mm 3 m/S 749 mmHg 88%

Morgen, 22 Juni, Dienstag

Zeit Temperatur Niederschläge Wind Luftdruck Luftfeuchtigkeit
00:00 +21°C° 0 mm 3 m/S 749 mmHg 89%
01:00 +20°C° 0 mm 3 m/S 749 mmHg 90%
02:00 +20°C° 0 mm 2 m/S 749 mmHg 92%
03:00 +20°C° 0 mm 3 m/S 749 mmHg 92%
04:00 +21°C° 0 mm 3 m/S 749 mmHg 92%
05:00 +21°C° 0 mm 3 m/S 749 mmHg 92%
06:00 +22°C° 0 mm 4 m/S 749 mmHg 87%
07:00 +23°C° 0 mm 4 m/S 749 mmHg 82%
08:00 +26°C° 0 mm 4 m/S 749 mmHg 76%
09:00 +27°C° 0.4 mm 5 m/S 749 mmHg 75%
10:00 +28°C° 0.4 mm 5 m/S 749 mmHg 73%
11:00 +29°C° 0.4 mm 5 m/S 749 mmHg 71%
12:00 +29°C° 0.7 mm 4 m/S 749 mmHg 70%
13:00 +29°C° 0.7 mm 4 m/S 750 mmHg 69%
14:00 +30°C° 0.7 mm 4 m/S 750 mmHg 68%
15:00 +30°C° 0.5 mm 3 m/S 749 mmHg 68%
16:00 +30°C° 0.5 mm 3 m/S 749 mmHg 68%
17:00 +30°C° 0.5 mm 3 m/S 749 mmHg 68%
18:00 +29°C° 0.4 mm 3 m/S 749 mmHg 72%
19:00 +27°C° 0.4 mm 2 m/S 749 mmHg 77%
20:00 +26°C° 0.4 mm 2 m/S 749 mmHg 82%
21:00 +25°C° 0 mm 2 m/S 749 mmHg 84%
22:00 +24°C° 0 mm 2 m/S 750 mmHg 86%
23:00 +24°C° 0 mm 2 m/S 750 mmHg 89%

übermorgen, 23 Juni, Mittwoch

Zeit Temperatur Niederschläge Wind Luftdruck Luftfeuchtigkeit
00:00 +23°C° 0.1 mm 2 m/S 750 mmHg 90%
01:00 +21°C° 0.1 mm 2 m/S 750 mmHg 90%
02:00 +21°C° 0.1 mm 2 m/S 751 mmHg 91%
03:00 +21°C° 0 mm 2 m/S 751 mmHg 91%
04:00 +21°C° 0 mm 2 m/S 751 mmHg 91%
05:00 +20°C° 0 mm 2 m/S 751 mmHg 91%
06:00 +22°C° 0 mm 3 m/S 751 mmHg 84%
07:00 +25°C° 0 mm 3 m/S 751 mmHg 77%
08:00 +26°C° 0 mm 4 m/S 751 mmHg 70%
09:00 +28°C° 0 mm 4 m/S 751 mmHg 64%
10:00 +29°C° 0 mm 4 m/S 751 mmHg 58%
11:00 +30°C° 0 mm 4 m/S 751 mmHg 52%
12:00 +32°C° 0 mm 4 m/S 751 mmHg 50%
13:00 +32°C° 0 mm 4 m/S 751 mmHg 49%
14:00 +33°C° 0 mm 4 m/S 751 mmHg 47%
15:00 +33°C° 0 mm 3 m/S 751 mmHg 50%
16:00 +33°C° 0 mm 3 m/S 751 mmHg 53%
17:00 +33°C° 0 mm 3 m/S 751 mmHg 56%
18:00 +30°C° 0 mm 2 m/S 751 mmHg 63%
19:00 +28°C° 0 mm 2 m/S 751 mmHg 70%
20:00 +27°C° 0 mm 1 m/S 751 mmHg 78%
21:00 +26°C° 0 mm 1 m/S 751 mmHg 80%
22:00 +25°C° 0 mm 1 m/S 751 mmHg 82%
23:00 +24°C° 0 mm 1 m/S 751 mmHg 84%

24 Juni, Donnerstag

Zeit Temperatur Niederschläge Wind Luftdruck Luftfeuchtigkeit
00:00 +24°C° 0.1 mm 1 m/S 751 mmHg 86%
01:00 +23°C° 0.1 mm 2 m/S 751 mmHg 88%
02:00 +23°C° 0.1 mm 2 m/S 751 mmHg 90%
03:00 +23°C° 0.2 mm 1 m/S 751 mmHg 90%
04:00 +23°C° 0.2 mm 1 m/S 751 mmHg 91%
05:00 +23°C° 0.2 mm 1 m/S 751 mmHg 91%
06:00 +24°C° 0 mm 1 m/S 751 mmHg 87%
07:00 +25°C° 0 mm 1 m/S 752 mmHg 82%
08:00 +27°C° 0 mm 2 m/S 752 mmHg 77%
09:00 +28°C° 0 mm 2 m/S 752 mmHg 72%
10:00 +29°C° 0 mm 2 m/S 752 mmHg 68%
11:00 +30°C° 0 mm 2 m/S 751 mmHg 63%
12:00 +30°C° 0.2 mm 2 m/S 751 mmHg 62%
13:00 +31°C° 0.2 mm 2 m/S 751 mmHg 61%
14:00 +31°C° 0.2 mm 2 m/S 751 mmHg 60%
15:00 +31°C° 0.3 mm 2 m/S 751 mmHg 63%
16:00 +30°C° 0.3 mm 2 m/S 751 mmHg 66%
17:00 +30°C° 0.3 mm 2 m/S 750 mmHg 69%
18:00 +27°C° 0.8 mm 2 m/S 750 mmHg 75%
19:00 +25°C° 0.8 mm 2 m/S 751 mmHg 82%
20:00 +23°C° 0.8 mm 2 m/S 751 mmHg 88%
21:00 +21°C° 0.6 mm 2 m/S 751 mmHg 89%
22:00 +21°C° 0.6 mm 2 m/S 751 mmHg 89%
23:00 +21°C° 0.6 mm 1 m/S 750 mmHg 89%

25 Juni, Freitag

Zeit Temperatur Niederschläge Wind Luftdruck Luftfeuchtigkeit
00:00 +20°C° 1.3 mm 2 m/S 750 mmHg 91%
01:00 +20°C° 1.3 mm 2 m/S 750 mmHg 93%
02:00 +20°C° 1.3 mm 2 m/S 750 mmHg 95%
03:00 +20°C° 0.1 mm 2 m/S 750 mmHg 95%
04:00 +22°C° 0.1 mm 1 m/S 750 mmHg 94%
05:00 +22°C° 0.1 mm 1 m/S 750 mmHg 94%
06:00 +24°C° 0.1 mm 1 m/S 749 mmHg 90%
07:00 +25°C° 0.1 mm 1 m/S 749 mmHg 86%
08:00 +26°C° 0.1 mm 2 m/S 749 mmHg 81%
09:00 +27°C° 0.3 mm 2 m/S 749 mmHg 75%
10:00 +29°C° 0.3 mm 2 m/S 750 mmHg 69%
11:00 +30°C° 0.3 mm 3 m/S 750 mmHg 63%
12:00 +31°C° 0.1 mm 3 m/S 749 mmHg 60%
13:00 +31°C° 0.1 mm 3 m/S 749 mmHg 57%
14:00 +33°C° 0.1 mm 3 m/S 749 mmHg 54%
15:00 +33°C° 0 mm 3 m/S 748 mmHg 57%
16:00 +31°C° 0 mm 3 m/S 748 mmHg 60%
17:00 +31°C° 0 mm 2 m/S 748 mmHg 62%
18:00 +29°C° 0.2 mm 2 m/S 748 mmHg 69%
19:00 +28°C° 0.2 mm 2 m/S 747 mmHg 76%
20:00 +26°C° 0.2 mm 2 m/S 747 mmHg 83%
21:00 +25°C° 0.7 mm 3 m/S 747 mmHg 85%
22:00 +22°C° 0.7 mm 3 m/S 747 mmHg 88%
23:00 +21°C° 0.7 mm 3 m/S 747 mmHg 91%

26 Juni, Samstag

Zeit Temperatur Niederschläge Wind Luftdruck Luftfeuchtigkeit
00:00 +21°C° 0.4 mm 3 m/S 747 mmHg 91%
01:00 +21°C° 0.4 mm 2 m/S 746 mmHg 91%
02:00 +20°C° 0.4 mm 2 m/S 746 mmHg 91%
03:00 +20°C° 0 mm 2 m/S 746 mmHg 93%
04:00 +20°C° 0 mm 2 m/S 746 mmHg 94%
05:00 +20°C° 0 mm 2 m/S 746 mmHg 96%
06:00 +21°C° 0 mm 2 m/S 746 mmHg 91%
07:00 +22°C° 0 mm 3 m/S 746 mmHg 86%
08:00 +24°C° 0 mm 3 m/S 746 mmHg 82%
09:00 +25°C° 0 mm 3 m/S 746 mmHg 76%
10:00 +26°C° 0 mm 3 m/S 746 mmHg 71%
11:00 +27°C° 0 mm 3 m/S 746 mmHg 66%
12:00 +27°C° 0 mm 4 m/S 746 mmHg 66%
13:00 +27°C° 0 mm 5 m/S 747 mmHg 66%
14:00 +27°C° 0 mm 5 m/S 747 mmHg 66%
15:00 +26°C° 0 mm 5 m/S 747 mmHg 68%
16:00 +25°C° 0 mm 5 m/S 747 mmHg 70%
17:00 +23°C° 0 mm 5 m/S 747 mmHg 72%
18:00 +22°C° 0 mm 4 m/S 746 mmHg 76%
19:00 +21°C° 0 mm 3 m/S 746 mmHg 80%
20:00 +20°C° 0 mm 2 m/S 746 mmHg 84%
21:00 +19°C° 0 mm 2 m/S 746 mmHg 87%
22:00 +18°C° 0 mm 2 m/S 746 mmHg 90%
23:00 +17°C° 0 mm 2 m/S 747 mmHg 93%
Mehr zeigen

Wir brauchen deine Erlaubnis

Meteoprog und unser Service Anbieter werden persönliche Daten aufbewahren, so wie Cookies, Geräte Bezeichnung oder ähnliche Technologien von deinem Gerät und Prozess, so wie Persönliche Daten Inhalte und Werbungen, genauso wie social Media und den Verkehr zu analysieren.

  • Aufbewahrung und/oder Zugang zu deiner Geräte Informationen.

    Cookies, Geräte Bezeichnung oder andere Informationen, können aufbewahrt oder Zugang zu deinem Gerät erhalten, für den Grund, der oben angegeben wird.

  • Personalisierte Werbung und Inhalte, Messungen, Einblick in das Publikum und Produkt Entwicklung.

    Werbungen und Inhalte können personalisiert werden, basierend auf ein Profil. Mehr Daten können besser personalisierte Werbungen und Inhalte hinzufügen. Werbung und Inhalte können gezeigt und gemessen werden. Einblicke über das Publikum, welche die Werbung gesehen haben und den Inhalt, können abgeleitet werden. So wie Daten können genutzt werden, um es zu verbessern oder die Benutzer Erfahrung zu verbessern das System und die Software.

Wenn du “Ich stimme zu” klickst, erlaubst du uns, die Cookies zu benutzen die Geräte Bezeichnung, den Web oder ähnliche Technologien zu benutzen. Deine Settings, können in deinem Gerät bei deinem Browser geändert werden.

Für den bestimmten Zweck, berechtigten Interessen beruhen darauf, mehr als auf den Inhalt. Du kannst mehr darüber in unseren Privaten und Cookie Politik lesen.